#timestamp,LO_Frequency,Hit,StdDev 
1613325615.1,286047015.5,P
1613325635.9,286047011.8,N
1613325655.7,286047016.9,Y
1613325675.6,286047003.7,P
1613325695.4,286046998.6,N
1613325715.2,286047002.0,N
1613325735.1,286047007.1,N
1613325736.0,286047007.1,N
1613325755.8,286047007.5,N
1613325775.6,286047005.8,N
1613325795.5,286047005.8,N
1613325815.3,286047006.7,N
1613325835.1,286047008.9,N
1613325855.9,286047010.1,N
1613325875.7,286047008.0,N
1613325895.6,286047009.5,N
1613325915.4,286047012.2,Y
1613325935.2,286047003.7,P
1613325955.1,286047010.3,P
1613325956.0,286047010.3,P
1613325975.8,286047020.7,Y
1613325995.7,286047004.6,P
1613326015.5,286047010.9,P
1613326035.3,286047014.6,P
1613326055.2,286047018.0,Y
1613326075.0,286047010.5,P
1613326075.9,286047010.5,P
1613326095.8,286047013.3,P
1613326115.6,286047014.3,Y
1613326135.4,286047005.2,P
1613326155.3,286047004.0,N
1613326175.1,286047004.7,N
1613326195.9,286047010.5,Y
1613326215.7,286047006.2,P
1613326235.5,286047011.4,P
1613326255.4,286047015.6,P
1613326275.2,286047015.5,Y
1613326295.1,286047001.5,P
1613326296.0,286047001.5,N
1613326315.8,286047004.2,N
1613326335.6,286047000.0,N
1613326355.5,286047003.9,N
1613326375.3,286046998.1,N
1613326395.2,286046998.8,N
1613326415.9,286046994.0,N
1613326435.7,286046996.7,N
1613326455.6,286046997.7,N
1613326475.4,286046997.0,N
1613326495.2,286047001.1,N
1613326515.1,286047002.4,N
1613326516.0,286047002.4,N
1613326535.8,286047000.9,N
1613326555.7,286046998.9,N
1613326575.5,286046998.2,N
1613326595.3,286047001.5,N
1613326615.2,286047005.7,N
1613326635.9,286047006.0,N
1613326655.7,286047005.1,N
1613326675.6,286047005.8,N
1613326695.4,286047005.3,N
1613326715.2,286047010.8,N
1613326735.1,286047011.0,N
1613326736.0,286047011.0,N
1613326755.8,286047013.4,N
1613326775.7,286047013.4,N
1613326795.5,286047015.5,N
1613326815.3,286047016.7,Y
1613326835.2,286047013.4,P
1613326855.0,286047010.1,N
1613326855.9,286047010.1,N
1613326875.8,286047010.5,N
1613326895.6,286047008.0,N
1613326915.4,286047004.5,N
1613326935.3,286047000.8,N
1613326955.1,286046998.7,N
1613326975.8,286046992.1,N
1613326995.7,286046994.2,N
1613327015.5,286046994.4,N
1613327035.4,286046995.1,N
1613327055.2,286046994.4,N
1613327075.0,286046993.4,N
1613327075.9,286046993.4,N
1613327095.8,286046993.4,N
1613327115.6,286046995.4,N
1613327135.4,286046993.9,N
1613327155.3,286046991.7,N
1613327175.1,286046992.2,N
1613327195.9,286046992.0,N
1613327215.7,286046994.1,N
1613327235.5,286046995.1,N
1613327255.4,286046994.6,N
1613327275.2,286046990.6,N
1613327295.0,286046996.0,N
1613327295.9,286046996.0,N
1613327315.8,286046994.9,N
1613327335.6,286047002.2,N
1613327355.5,286047006.0,N
1613327375.3,286046999.7,N
1613327395.1,286047002.2,N
1613327415.9,286046999.9,N
1613327435.7,286047000.2,N
1613327455.5,286047000.2,N
1613327475.4,286046996.5,N
1613327495.2,286046995.4,N
1613327515.0,286046997.1,N
1613327516.0,286046997.1,N
1613327535.8,286047000.6,N
1613327555.6,286047002.1,N
1613327575.5,286047005.5,N
1613327595.3,286047005.4,N
1613327615.1,286047005.5,N
1613327635.9,286047010.4,N
1613327655.7,286047012.4,N
1613327675.5,286047011.5,N
1613327695.4,286047010.3,N
1613327715.2,286047009.7,N
1613327735.1,286047007.7,N
1613327736.0,286047007.7,N
1613327755.8,286047011.4,N
1613327775.6,286047010.3,N
1613327795.5,286047009.7,N
1613327815.3,286047013.1,N
1613327835.1,286047011.7,N
1613327855.9,286047014.4,N
1613327875.7,286047015.4,N
1613327895.6,286047010.2,N
1613327915.4,286047009.6,N
1613327935.2,286047013.3,N
1613327955.1,286047018.0,Y
1613327956.0,286047018.0,P
1613327975.8,286047011.4,N
1613327995.7,286047013.7,N
1613328015.5,286047012.9,Y
1613328035.3,286047005.1,P
1613328055.2,286047006.1,N
1613328075.0,286047009.0,N
1613328075.9,286047009.0,Y
1613328095.8,286047000.8,P
1613328115.6,286047003.8,N
1613328135.4,286047002.3,N
1613328155.3,286046998.4,N
1613328175.1,286046997.0,N
1613328195.8,286046998.6,N
1613328215.7,286046998.9,N
1613328235.5,286046997.7,N
1613328255.4,286046998.2,N
1613328275.2,286047002.6,N
1613328295.0,286046999.5,N
1613328295.9,286046999.5,N
1613328315.8,286046992.7,N
1613328335.6,286046994.0,N
1613328355.5,286046992.4,N
1613328375.3,286046995.5,N
1613328395.1,286046993.3,N
1613328415.9,286046995.8,N
1613328435.7,286046994.6,N
1613328455.5,286046998.2,N
1613328475.4,286046996.0,N
1613328495.2,286046997.9,N
1613328515.1,286046998.6,N
1613328516.0,286046998.6,N
1613328535.8,286047011.9,Y
1613328555.6,286047003.9,P
1613328575.5,286047005.1,N
1613328595.3,286047004.8,N
1613328615.1,286047002.0,N
1613328635.9,286047001.6,N
1613328655.7,286047003.3,N
1613328675.6,286046984.5,Y
1613328695.4,286046980.5,P
1613328715.2,286046981.0,N
1613328735.1,286046995.0,N
1613328736.0,286046995.0,N
1613328755.8,286046995.0,N
1613328775.6,286046997.8,N
1613328795.5,286046998.4,N
1613328815.3,286047024.1,Y
1613328835.2,286047028.8,P
1613328855.9,286047042.0,N
1613328875.7,286047044.8,N
1613328895.6,286047048.0,N
1613328915.4,286047049.0,N
1613328935.2,286047051.8,N
1613328955.1,286047049.8,N
1613328956.0,286047049.8,N
1613328975.8,286047049.7,N
1613328995.7,286047052.7,Y
1613329015.5,286047019.3,P
1613329035.3,286047016.1,N
1613329055.2,286046417.6,P
1613329075.0,286046416.6,N
1613329075.9,286046416.6,N
1613329095.8,286047015.3,N
1613329115.6,286047022.9,N
1613329135.4,286047021.7,N
1613329155.3,286047021.2,N
1613329175.1,286047020.3,N
1613329176.0,286047020.3,N
1613329195.8,286047019.7,N
